AFV372 EGLL-FQMA

Flight info

Callsign AFV372
Flight time N/A
Altitude 31000
Route MAXIT Y803 MID UL612 RESMI UM728 KETEX DCT ADEKA DCT FJR UM731 AMFAC DCT NOLVI DCT SALMA UG6 DIMAO UZ147 ROGBA UG869 NAMAT UG655 FARES G655 SEB M214 GARIN UG655 KGI UM215 IKTAL UG655 MOTAM UM215 VLS UG652 GADBA UB529 ATUSI ATUSI1A
Aircraft B77W/H-SDE1E2E3FGHIJ2J3J4J5M1RWXY/LB1D1

Departure

Time N/A
Airport London Heathrow Airport (EGLL)

Arrival

Time 2026-05-01 09:48
Airport Maputo Airport (FQMA)
Time Latitude Longitude Altitude Speed Heading
2026-04-30 22:52 51.46849 -0.46350 91 ft 0 kts 56°
2026-05-01 07:23 -9.88777 27.18249 33092 ft 490 kts 169°
2026-05-01 07:24 -9.98869 27.20135 33090 ft 490 kts 168°
2026-05-01 07:24 -10.05534 27.21382 33094 ft 490 kts 169°
2026-05-01 07:25 -10.12241 27.22637 33090 ft 490 kts 169°
2026-05-01 07:25 -10.18947 27.23892 33096 ft 490 kts 168°
2026-05-01 07:26 -10.25653 27.25148 33093 ft 490 kts 169°
2026-05-01 07:26 -10.32352 27.26403 33092 ft 489 kts 169°
2026-05-01 07:27 -10.39047 27.27658 33095 ft 489 kts 169°
2026-05-01 07:27 -10.45743 27.28913 33094 ft 489 kts 168°
2026-05-01 07:28 -10.52431 27.30168 33098 ft 489 kts 169°
2026-05-01 07:28 -10.59127 27.31425 33102 ft 489 kts 168°
2026-05-01 07:29 -10.65824 27.32682 33128 ft 492 kts 169°
2026-05-01 07:29 -10.69205 27.33318 33304 ft 496 kts 169°
2026-05-01 07:29 -10.72589 27.33953 33746 ft 493 kts 169°
2026-05-01 07:29 -10.75949 27.34585 34235 ft 490 kts 169°
2026-05-01 07:30 -10.79294 27.35214 34602 ft 489 kts 169°
2026-05-01 07:30 -10.82638 27.35843 34899 ft 489 kts 169°
2026-05-01 07:30 -10.85988 27.36472 35189 ft 489 kts 169°
2026-05-01 07:30 -10.89334 27.37104 35492 ft 489 kts 169°
2026-05-01 07:31 -10.92669 27.37737 35830 ft 488 kts 169°
2026-05-01 07:31 -11.02720 27.39650 36100 ft 490 kts 169°
2026-05-01 07:32 -11.09393 27.40919 36121 ft 487 kts 169°
2026-05-01 07:33 -11.19371 27.42817 36141 ft 486 kts 169°
2026-05-01 07:33 -11.29342 27.44716 36148 ft 486 kts 169°
2026-05-01 07:34 -11.39319 27.46616 36148 ft 487 kts 169°
2026-05-01 07:35 -11.45986 27.47887 36151 ft 488 kts 169°
2026-05-01 07:35 -11.52624 27.49154 36154 ft 489 kts 169°
2026-05-01 07:36 -11.59319 27.50431 36153 ft 490 kts 169°
2026-05-01 07:36 -11.65991 27.51841 36156 ft 490 kts 167°
2026-05-01 07:37 -11.75965 27.54191 36156 ft 491 kts 167°
2026-05-01 07:37 -11.82624 27.55726 36155 ft 491 kts 167°
2026-05-01 07:38 -11.89289 27.57249 36155 ft 491 kts 167°
2026-05-01 07:39 -11.99290 27.59536 36151 ft 490 kts 167°
2026-05-01 07:39 -12.09251 27.61928 36149 ft 490 kts 166°
2026-05-01 07:40 -12.15878 27.63566 36151 ft 490 kts 166°
2026-05-01 07:40 -12.22508 27.65198 36150 ft 490 kts 166°
2026-05-01 07:41 -12.29091 27.66810 36151 ft 490 kts 166°
2026-05-01 07:42 -12.39079 27.69254 36149 ft 490 kts 166°
2026-05-01 07:42 -12.45707 27.70877 36151 ft 490 kts 166°
2026-05-01 07:43 -12.52302 27.72493 36150 ft 490 kts 166°
2026-05-01 07:43 -12.62243 27.74932 36151 ft 490 kts 166°
2026-05-01 07:44 -12.75489 27.78183 36150 ft 489 kts 166°
2026-05-01 07:45 -12.82106 27.79809 36149 ft 488 kts 166°
2026-05-01 07:45 -12.88714 27.81434 36150 ft 488 kts 166°
2026-05-01 07:46 -12.95317 27.83058 36147 ft 488 kts 166°
2026-05-01 07:47 -13.05220 27.85495 36150 ft 488 kts 166°
2026-05-01 07:47 -13.11823 27.87121 36148 ft 488 kts 166°
2026-05-01 07:48 -13.21734 27.89564 36145 ft 488 kts 166°
2026-05-01 07:48 -13.28350 27.91196 36146 ft 489 kts 166°
2026-05-01 07:49 -13.38221 27.93632 36145 ft 489 kts 166°
2026-05-01 07:50 -13.44828 27.95264 36148 ft 488 kts 166°
2026-05-01 07:50 -13.54737 27.97713 36146 ft 488 kts 166°
2026-05-01 07:51 -13.61335 27.99345 36148 ft 488 kts 166°
2026-05-01 07:52 -13.71241 28.01796 36148 ft 488 kts 166°
2026-05-01 07:52 -13.77839 28.03431 36150 ft 488 kts 166°
2026-05-01 07:53 -13.87738 28.05884 36148 ft 488 kts 166°
2026-05-01 07:53 -13.94339 28.07522 36142 ft 489 kts 166°
2026-05-01 07:55 -14.10911 28.11637 36149 ft 492 kts 166°
2026-05-01 07:56 -14.27577 28.15781 36149 ft 493 kts 166°
2026-05-01 07:57 -14.37561 28.18267 36147 ft 492 kts 166°
2026-05-01 07:58 -14.50789 28.21564 36155 ft 490 kts 166°
2026-05-01 07:59 -14.64029 28.24868 36154 ft 489 kts 166°
2026-05-01 08:00 -14.83843 28.29821 36161 ft 489 kts 166°
2026-05-01 08:01 -14.97084 28.33136 36167 ft 490 kts 166°
2026-05-01 08:02 -15.07022 28.35627 36206 ft 490 kts 166°
2026-05-01 08:03 -15.16976 28.38124 36252 ft 491 kts 166°
2026-05-01 08:03 -15.26941 28.40627 36292 ft 492 kts 166°
2026-05-01 08:04 -15.33264 28.43248 36294 ft 491 kts 149°
2026-05-01 08:04 -15.38642 28.47572 36301 ft 490 kts 136°
2026-05-01 08:05 -15.46015 28.54939 36261 ft 491 kts 136°
2026-05-01 08:06 -15.52614 28.61446 36168 ft 492 kts 136°
2026-05-01 08:07 -15.62577 28.71183 36168 ft 493 kts 136°
2026-05-01 08:08 -15.70057 28.78508 36165 ft 493 kts 136°
2026-05-01 08:09 -15.80013 28.88273 36157 ft 492 kts 136°
2026-05-01 08:09 -15.84979 28.93149 36157 ft 491 kts 136°
2026-05-01 08:10 -15.95239 29.02507 36151 ft 492 kts 147°
2026-05-01 08:11 -16.07593 29.08587 36160 ft 494 kts 158°
2026-05-01 08:12 -16.17103 29.12659 36163 ft 495 kts 157°
2026-05-01 08:13 -16.26642 29.16826 36169 ft 496 kts 157°
2026-05-01 08:13 -16.36181 29.21026 36172 ft 496 kts 156°
2026-05-01 08:14 -16.42518 29.23847 36167 ft 495 kts 156°
2026-05-01 08:14 -16.48849 29.26627 36185 ft 495 kts 156°
2026-05-01 08:15 -16.58365 29.30793 36191 ft 496 kts 156°
2026-05-01 08:16 -16.64728 29.33587 36185 ft 496 kts 156°
2026-05-01 08:16 -16.71088 29.36384 36182 ft 497 kts 156°
2026-05-01 08:17 -16.77455 29.39186 36207 ft 497 kts 156°
2026-05-01 08:17 -16.83783 29.41973 36190 ft 496 kts 156°
2026-05-01 08:18 -16.90143 29.44776 36195 ft 496 kts 156°
2026-05-01 08:19 -17.02875 29.50388 36209 ft 496 kts 156°
2026-05-01 08:19 -17.09237 29.53191 36188 ft 496 kts 157°
2026-05-01 08:20 -17.15611 29.56007 36186 ft 497 kts 157°
2026-05-01 08:20 -17.22025 29.58743 36193 ft 498 kts 158°
2026-05-01 08:21 -17.28477 29.61421 36191 ft 499 kts 158°
2026-05-01 08:21 -17.34932 29.64104 36187 ft 500 kts 158°
2026-05-01 08:22 -17.41342 29.66782 36187 ft 499 kts 158°
2026-05-01 08:22 -17.47823 29.69497 36182 ft 498 kts 158°
2026-05-01 08:23 -17.54206 29.72172 36195 ft 498 kts 158°
2026-05-01 08:23 -17.60634 29.74867 36197 ft 498 kts 158°
2026-05-01 08:24 -17.67057 29.77562 36190 ft 498 kts 158°
2026-05-01 08:24 -17.73487 29.80261 36192 ft 497 kts 158°
2026-05-01 08:25 -17.79916 29.82960 36201 ft 497 kts 158°
2026-05-01 08:25 -17.86383 29.85676 36192 ft 498 kts 158°
2026-05-01 08:26 -17.92775 29.88360 36196 ft 498 kts 158°
2026-05-01 08:26 -17.99170 29.91174 36199 ft 499 kts 155°
2026-05-01 08:27 -18.05429 29.94343 36207 ft 499 kts 154°
2026-05-01 08:27 -18.11676 29.97536 36197 ft 499 kts 154°
2026-05-01 08:28 -18.17933 30.00673 36208 ft 499 kts 154°
2026-05-01 08:28 -18.24207 30.03790 36211 ft 498 kts 156°
2026-05-01 08:29 -18.30586 30.06628 36213 ft 498 kts 157°
2026-05-01 08:29 -18.36961 30.09469 36222 ft 497 kts 157°
2026-05-01 08:30 -18.43327 30.12334 36210 ft 497 kts 157°
2026-05-01 08:30 -18.49687 30.15191 36215 ft 497 kts 157°
2026-05-01 08:31 -18.56053 30.18042 36216 ft 497 kts 157°
2026-05-01 08:31 -18.62428 30.20906 36212 ft 498 kts 157°
2026-05-01 08:32 -18.68802 30.23771 36217 ft 498 kts 157°
2026-05-01 08:32 -18.75134 30.26608 36214 ft 498 kts 157°
2026-05-01 08:33 -18.81518 30.29462 36226 ft 498 kts 157°
2026-05-01 08:33 -18.87908 30.32319 36218 ft 499 kts 157°
2026-05-01 08:34 -18.94295 30.35177 36210 ft 499 kts 157°
2026-05-01 08:34 -19.00690 30.38042 36216 ft 498 kts 157°
2026-05-01 08:35 -19.07075 30.40905 36216 ft 498 kts 157°
2026-05-01 08:35 -19.13460 30.43771 36214 ft 499 kts 157°
2026-05-01 08:36 -19.19859 30.46645 36224 ft 500 kts 157°
2026-05-01 08:36 -19.26275 30.49528 36210 ft 501 kts 157°
2026-05-01 08:37 -19.32700 30.52419 36203 ft 501 kts 157°
2026-05-01 08:37 -19.39117 30.55308 36201 ft 501 kts 158°
2026-05-01 08:38 -19.45533 30.58200 36186 ft 501 kts 157°
2026-05-01 08:38 -19.51935 30.61087 36178 ft 500 kts 157°
2026-05-01 08:39 -19.58329 30.63973 36183 ft 499 kts 157°
2026-05-01 08:39 -19.64686 30.66845 36179 ft 500 kts 157°
2026-05-01 08:40 -19.74317 30.71198 36155 ft 502 kts 157°
2026-05-01 08:40 -19.80744 30.74107 36150 ft 503 kts 157°
2026-05-01 08:41 -19.87179 30.77021 36148 ft 503 kts 157°
2026-05-01 08:41 -19.93621 30.79939 36133 ft 503 kts 157°
2026-05-01 08:42 -20.00058 30.82852 36130 ft 503 kts 157°
2026-05-01 08:42 -20.06500 30.85779 36129 ft 503 kts 157°
2026-05-01 08:43 -20.12895 30.88808 36124 ft 504 kts 156°
2026-05-01 08:43 -20.19274 30.91889 36128 ft 504 kts 156°
2026-05-01 08:44 -20.25673 30.94961 36120 ft 504 kts 156°
2026-05-01 08:44 -20.32080 30.98022 36121 ft 505 kts 156°
2026-05-01 08:45 -20.38449 31.01062 36112 ft 505 kts 156°
2026-05-01 08:45 -20.44857 31.04125 36106 ft 505 kts 156°
2026-05-01 08:46 -20.51311 31.07213 36111 ft 505 kts 156°
2026-05-01 08:46 -20.57685 31.10266 36108 ft 505 kts 156°
2026-05-01 08:47 -20.64098 31.13341 36116 ft 505 kts 156°
2026-05-01 08:47 -20.70526 31.16426 36113 ft 507 kts 156°
2026-05-01 08:48 -20.76963 31.19517 36103 ft 508 kts 156°
2026-05-01 08:48 -20.83417 31.22619 36100 ft 508 kts 156°
2026-05-01 08:49 -20.89866 31.25723 36116 ft 508 kts 156°
2026-05-01 08:49 -20.96322 31.28833 36101 ft 509 kts 156°
2026-05-01 08:50 -21.02783 31.31948 36102 ft 510 kts 156°
2026-05-01 08:50 -21.09251 31.35070 36101 ft 510 kts 156°
2026-05-01 08:51 -21.15674 31.38172 36098 ft 510 kts 156°
2026-05-01 08:51 -21.22147 31.41302 36098 ft 511 kts 157°
2026-05-01 08:52 -21.28630 31.44439 36101 ft 511 kts 157°
2026-05-01 08:52 -21.35115 31.47580 36102 ft 512 kts 157°
2026-05-01 08:53 -21.41608 31.50728 36109 ft 512 kts 157°
2026-05-01 08:53 -21.48112 31.53884 36105 ft 513 kts 157°
2026-05-01 08:54 -21.53523 31.56512 36105 ft 513 kts 157°
2026-05-01 08:54 -21.60029 31.59675 36096 ft 514 kts 157°
2026-05-01 08:55 -21.66545 31.62844 36097 ft 514 kts 157°
2026-05-01 08:55 -21.73061 31.66017 36095 ft 514 kts 157°
2026-05-01 08:56 -21.79584 31.69193 36096 ft 515 kts 157°
2026-05-01 08:56 -21.86111 31.72370 36095 ft 515 kts 157°
2026-05-01 08:57 -21.92655 31.75535 36087 ft 515 kts 160°
2026-05-01 08:57 -21.99461 31.77806 36086 ft 510 kts 171°
2026-05-01 08:58 -22.06425 31.79267 36088 ft 510 kts 171°
2026-05-01 08:58 -22.13395 31.80708 36093 ft 510 kts 171°
2026-05-01 08:59 -22.20313 31.82177 36096 ft 510 kts 171°
2026-05-01 08:59 -22.27279 31.83678 36091 ft 511 kts 171°
2026-05-01 09:00 -22.34257 31.85185 36093 ft 512 kts 171°
2026-05-01 09:00 -22.41240 31.86693 36086 ft 512 kts 171°
2026-05-01 09:01 -22.48232 31.88202 36091 ft 513 kts 171°
2026-05-01 09:01 -22.55241 31.89717 36088 ft 514 kts 171°
2026-05-01 09:02 -22.62257 31.91234 36078 ft 514 kts 171°
2026-05-01 09:02 -22.69281 31.92754 36077 ft 515 kts 171°
2026-05-01 09:03 -22.76312 31.94277 36081 ft 516 kts 172°
2026-05-01 09:03 -22.83357 31.95802 36079 ft 516 kts 172°
2026-05-01 09:04 -22.90407 31.97325 36073 ft 516 kts 172°
2026-05-01 09:04 -22.97460 31.98857 36073 ft 516 kts 172°
2026-05-01 09:05 -23.04510 32.00329 36075 ft 516 kts 172°
2026-05-01 09:05 -23.11574 32.01764 36074 ft 517 kts 173°
2026-05-01 09:06 -23.18595 32.03194 36069 ft 517 kts 172°
2026-05-01 09:06 -23.25668 32.04646 36080 ft 517 kts 173°
2026-05-01 09:07 -23.32748 32.06125 36070 ft 519 kts 172°
2026-05-01 09:07 -23.39838 32.07618 36052 ft 519 kts 172°
2026-05-01 09:08 -23.46934 32.09102 36056 ft 519 kts 172°
2026-05-01 09:08 -23.54028 32.10582 36061 ft 520 kts 173°
2026-05-01 09:09 -23.61136 32.12064 36060 ft 520 kts 173°
2026-05-01 09:09 -23.68250 32.13549 36052 ft 521 kts 173°
2026-05-01 09:10 -23.75374 32.15039 36050 ft 522 kts 173°
2026-05-01 09:10 -23.82513 32.16534 36054 ft 523 kts 173°
2026-05-01 09:11 -23.89667 32.18034 36053 ft 524 kts 173°
2026-05-01 09:11 -23.96824 32.19535 36042 ft 524 kts 173°
2026-05-01 09:12 -24.03984 32.21039 36043 ft 524 kts 173°
2026-05-01 09:12 -24.11155 32.22547 36042 ft 525 kts 173°
2026-05-01 09:13 -24.18328 32.24056 36029 ft 525 kts 173°
2026-05-01 09:13 -24.25502 32.25566 36047 ft 525 kts 173°
2026-05-01 09:14 -24.27311 32.25947 36047 ft 525 kts 173°
2026-05-01 09:25 -24.38064 32.28212 36026 ft 527 kts 174°
2026-05-01 09:26 -24.48815 32.30476 35973 ft 523 kts 174°
2026-05-01 09:26 -24.55729 32.32728 35027 ft 524 kts 157°
2026-05-01 09:26 -24.58981 32.34596 34085 ft 533 kts 153°
2026-05-01 09:27 -24.65464 32.38663 32514 ft 535 kts 152°
2026-05-01 09:27 -24.68693 32.40665 32040 ft 528 kts 153°
2026-05-01 09:27 -24.71892 32.42596 31623 ft 522 kts 154°
2026-05-01 09:28 -24.75073 32.44472 31147 ft 517 kts 154°
2026-05-01 09:28 -24.78241 32.46316 30630 ft 514 kts 155°
2026-05-01 09:28 -24.81401 32.48142 30067 ft 512 kts 155°
2026-05-01 09:28 -24.84544 32.49956 29475 ft 509 kts 155°
2026-05-01 09:29 -24.90759 32.53557 28433 ft 500 kts 155°
2026-05-01 09:29 -24.93826 32.55340 27954 ft 496 kts 155°
2026-05-01 09:30 -24.99880 32.58868 26955 ft 489 kts 155°
2026-05-01 09:30 -25.02838 32.60594 26435 ft 487 kts 155°
2026-05-01 09:30 -25.08791 32.64068 25483 ft 481 kts 155°
2026-05-01 09:31 -25.11734 32.65786 25042 ft 477 kts 155°
2026-05-01 09:31 -25.14663 32.67498 24597 ft 474 kts 155°
2026-05-01 09:31 -25.20458 32.70886 23722 ft 469 kts 155°
2026-05-01 09:32 -25.23336 32.72570 23251 ft 466 kts 155°
2026-05-01 09:32 -25.29028 32.75902 22316 ft 459 kts 155°
2026-05-01 09:32 -25.31834 32.77545 21903 ft 455 kts 155°
2026-05-01 09:33 -25.34620 32.79177 21483 ft 450 kts 155°
2026-05-01 09:33 -25.37374 32.80789 21066 ft 447 kts 155°
2026-05-01 09:33 -25.42788 32.83961 20245 ft 440 kts 154°
2026-05-01 09:34 -25.45484 32.85547 19850 ft 435 kts 155°
2026-05-01 09:34 -25.48243 32.86736 19259 ft 422 kts 173°
2026-05-01 09:34 -25.53902 32.86310 18422 ft 401 kts 198°
2026-05-01 09:35 -25.56565 32.85593 17817 ft 387 kts 198°
2026-05-01 09:35 -25.61731 32.84194 15989 ft 378 kts 198°
2026-05-01 09:35 -25.64273 32.83511 15115 ft 374 kts 197°
2026-05-01 09:36 -25.66779 32.82844 14331 ft 367 kts 197°
2026-05-01 09:36 -25.69240 32.82192 13552 ft 360 kts 196°
2026-05-01 09:36 -25.71658 32.81554 12709 ft 354 kts 197°
2026-05-01 09:36 -25.74040 32.80924 11877 ft 350 kts 197°
2026-05-01 09:37 -25.76397 32.80300 11061 ft 345 kts 197°
2026-05-01 09:37 -25.80850 32.79137 10603 ft 316 kts 197°
2026-05-01 09:37 -25.82942 32.78565 10511 ft 300 kts 202°
2026-05-01 09:38 -25.86382 32.76350 10085 ft 280 kts 217°
2026-05-01 09:38 -25.87999 32.75173 9811 ft 278 kts 217°
2026-05-01 09:38 -25.89606 32.73997 9471 ft 276 kts 218°
2026-05-01 09:39 -25.92799 32.71657 8823 ft 274 kts 218°
2026-05-01 09:39 -25.94398 32.70505 8498 ft 273 kts 218°
2026-05-01 09:39 -25.95970 32.69378 8194 ft 272 kts 218°
2026-05-01 09:40 -25.97581 32.68226 7866 ft 271 kts 218°
2026-05-01 09:40 -26.00728 32.65977 7225 ft 270 kts 218°
2026-05-01 09:40 -26.02323 32.64836 6912 ft 269 kts 218°
2026-05-01 09:41 -26.03875 32.63726 6616 ft 269 kts 218°
2026-05-01 09:41 -26.06506 32.61844 6073 ft 268 kts 218°
2026-05-01 09:41 -26.08071 32.60726 5748 ft 267 kts 218°
2026-05-01 09:42 -26.09626 32.59612 5442 ft 266 kts 218°
2026-05-01 09:42 -26.11093 32.58421 5106 ft 254 kts 232°
2026-05-01 09:42 -26.12007 32.54915 4508 ft 238 kts 277°
2026-05-01 09:43 -26.10865 32.51550 3965 ft 233 kts 299°
2026-05-01 09:43 -26.10036 32.50035 3832 ft 223 kts 309°
2026-05-01 09:43 -26.08823 32.49040 3719 ft 215 kts 335°
2026-05-01 09:44 -26.05955 32.48800 3322 ft 209 kts 12°
2026-05-01 09:44 -26.04630 32.49496 3023 ft 207 kts 22°
2026-05-01 09:44 -26.03395 32.50276 2723 ft 201 kts 23°
2026-05-01 09:45 -26.02228 32.51010 2471 ft 189 kts 24°
2026-05-01 09:45 -26.00085 32.52347 1976 ft 161 kts 22°
2026-05-01 09:45 -25.99097 32.52962 1665 ft 164 kts 21°
2026-05-01 09:46 -25.98075 32.53572 1334 ft 167 kts 23°
2026-05-01 09:46 -25.97120 32.54182 1149 ft 144 kts 24°
2026-05-01 09:46 -25.96286 32.54715 960 ft 140 kts 21°
2026-05-01 09:46 -25.95399 32.55225 786 ft 144 kts 24°
2026-05-01 09:47 -25.94528 32.55761 618 ft 141 kts 24°
2026-05-01 09:47 -25.93643 32.56299 474 ft 145 kts 24°
2026-05-01 09:47 -25.92794 32.56824 251 ft 135 kts 24°
2026-05-01 09:47 -25.92005 32.57300 144 ft 123 kts 25°
2026-05-01 09:48 -25.91355 32.57699 143 ft 87 kts 28°
2026-05-01 09:48 -25.90962 32.57938 145 ft 42 kts 29°
2026-05-01 09:48 -25.90713 32.58090 144 ft 38 kts 28°
2026-05-01 09:48 -25.90499 32.58221 146 ft 32 kts 29°
2026-05-01 09:49 -25.90392 32.58286 150 ft 11 kts 28°
2026-05-01 09:49 -25.90370 32.58361 151 ft 11 kts 113°
2026-05-01 09:49 -25.90413 32.58435 151 ft 12 kts 137°
2026-05-01 09:49 -25.90436 32.58446 151 ft 0 kts 173°
2026-05-01 09:50 -25.90488 32.58431 151 ft 15 kts 199°
2026-05-01 09:50 -25.90578 32.58382 148 ft 18 kts 209°
2026-05-01 09:51 -25.90612 32.58361 147 ft 18 kts 209°
2026-05-01 09:51 -25.90728 32.58290 146 ft 19 kts 208°
2026-05-01 09:52 -25.90845 32.58220 146 ft 19 kts 208°
2026-05-01 09:52 -25.90962 32.58149 145 ft 19 kts 208°
2026-05-01 09:52 -25.91079 32.58077 147 ft 19 kts 209°
2026-05-01 09:52 -25.91195 32.58006 145 ft 19 kts 209°
2026-05-01 09:53 -25.91312 32.57934 144 ft 19 kts 209°
2026-05-01 09:53 -25.91428 32.57862 142 ft 19 kts 209°
2026-05-01 09:53 -25.91545 32.57791 138 ft 19 kts 208°
2026-05-01 09:53 -25.91662 32.57720 137 ft 19 kts 209°
2026-05-01 09:54 -25.91778 32.57649 128 ft 19 kts 208°
2026-05-01 09:54 -25.91895 32.57578 129 ft 19 kts 208°
2026-05-01 09:54 -25.92012 32.57507 136 ft 19 kts 209°
2026-05-01 09:54 -25.92091 32.57458 131 ft 7 kts 200°
2026-05-01 09:55 -25.92156 32.57455 133 ft 12 kts 166°
2026-05-01 09:55 -25.92234 32.57485 130 ft 12 kts 175°
2026-05-01 09:55 -25.92276 32.57489 128 ft 0 kts 176°
2026-05-01 09:55 -25.92283 32.57489 129 ft 0 kts 176°